ARG1340 SABE-SGAS

Flight info

Callsign ARG1340
Flight time 1h 26m
Altitude 39000
Route LANDA4B LANDA DCT GUA DCT DALAB UZ103 REPAM UP526 SAMGU SAMGU
Aircraft B38M/M-SDE1FGHILORVWXY/HB1

Departure

Time 2026-04-30 12:55
Airport Aeroparque Jorge Newbery (SABE)

Arrival

Time 2026-04-30 14:21
Airport Silvio Pettirossi International Airport (SGAS)
Time Latitude Longitude Altitude Speed Heading
2026-04-30 12:40 -34.55830 -58.41214 29 ft 0 kts 41°
2026-04-30 12:49 -34.55836 -58.41221 29 ft 3 kts 54°
2026-04-30 12:49 -34.55841 -58.41231 29 ft 0 kts 64°
2026-04-30 12:49 -34.55842 -58.41234 29 ft 2 kts 64°
2026-04-30 12:50 -34.55846 -58.41242 29 ft 0 kts 64°
2026-04-30 12:50 -34.55845 -58.41242 29 ft 0 kts 64°
2026-04-30 12:50 -34.55845 -58.41241 29 ft 0 kts 64°
2026-04-30 12:50 -34.55851 -58.41256 29 ft 2 kts 64°
2026-04-30 12:51 -34.55856 -58.41268 29 ft 2 kts 64°
2026-04-30 12:51 -34.55863 -58.41285 29 ft 2 kts 64°
2026-04-30 12:51 -34.55863 -58.41286 29 ft 0 kts 65°
2026-04-30 12:52 -34.55862 -58.41285 29 ft 0 kts 63°
2026-04-30 12:52 -34.55862 -58.41284 29 ft 0 kts 63°
2026-04-30 12:52 -34.55862 -58.41283 29 ft 0 kts 67°
2026-04-30 12:52 -34.55865 -58.41255 29 ft 10 kts 104°
2026-04-30 12:53 -34.55935 -58.41128 29 ft 24 kts 130°
2026-04-30 12:53 -34.56082 -58.41033 30 ft 22 kts 156°
2026-04-30 12:53 -34.56160 -58.40874 29 ft 23 kts 107°
2026-04-30 12:53 -34.56238 -58.40698 29 ft 25 kts 124°
2026-04-30 12:54 -34.56345 -58.40515 29 ft 28 kts 133°
2026-04-30 12:54 -34.56491 -58.40363 29 ft 23 kts 151°
2026-04-30 12:54 -34.56566 -58.40419 27 ft 13 kts 268°
2026-04-30 12:54 -34.56513 -58.40526 28 ft 24 kts 306°
2026-04-30 12:55 -34.56272 -58.40951 29 ft 103 kts 304°
2026-04-30 12:55 -34.55730 -58.41927 56 ft 170 kts 306°
2026-04-30 12:55 -34.55045 -58.43158 919 ft 176 kts 305°
2026-04-30 12:55 -34.54318 -58.44325 2097 ft 169 kts 318°
2026-04-30 12:56 -34.53321 -58.44967 3155 ft 163 kts 348°
2026-04-30 12:56 -34.52182 -58.44871 3937 ft 175 kts 15°
2026-04-30 12:56 -34.51067 -58.44116 4603 ft 195 kts 30°
2026-04-30 12:56 -34.49871 -58.43177 5257 ft 214 kts 30°
2026-04-30 12:57 -34.48551 -58.42163 5940 ft 235 kts 29°
2026-04-30 12:57 -34.47106 -58.41064 6660 ft 254 kts 29°
2026-04-30 12:57 -34.45547 -58.39881 7364 ft 273 kts 30°
2026-04-30 12:57 -34.43878 -58.38616 8081 ft 292 kts 30°
2026-04-30 12:58 -34.42115 -58.37276 8963 ft 301 kts 30°
2026-04-30 12:58 -34.40208 -58.36254 10009 ft 302 kts
2026-04-30 12:58 -34.38107 -58.36274 10725 ft 307 kts 342°
2026-04-30 12:58 -34.36171 -58.37326 11277 ft 316 kts 322°
2026-04-30 12:59 -34.34285 -58.38839 11784 ft 335 kts 322°
2026-04-30 12:59 -34.32282 -58.40436 12250 ft 353 kts 322°
2026-04-30 12:59 -34.30179 -58.42123 12644 ft 372 kts 322°
2026-04-30 12:59 -34.27976 -58.43896 13110 ft 386 kts 321°
2026-04-30 13:00 -34.25730 -58.45705 13877 ft 388 kts 321°
2026-04-30 13:00 -34.23476 -58.47520 14602 ft 391 kts 321°
2026-04-30 13:00 -34.21198 -58.49352 15299 ft 393 kts 321°
2026-04-30 13:00 -34.18941 -58.51167 16006 ft 395 kts 320°
2026-04-30 13:01 -34.16643 -58.53014 16691 ft 397 kts 320°
2026-04-30 13:01 -34.14323 -58.54855 17352 ft 401 kts 323°
2026-04-30 13:01 -34.11694 -58.56159 17995 ft 416 kts 339°
2026-04-30 13:01 -34.08781 -58.56651 18542 ft 430 kts 350°
2026-04-30 13:02 -34.05768 -58.56820 19028 ft 433 kts 351°
2026-04-30 13:02 -34.02778 -58.56970 19548 ft 435 kts 351°
2026-04-30 13:02 -33.99748 -58.57113 20062 ft 437 kts 351°
2026-04-30 13:02 -33.96695 -58.57253 20555 ft 439 kts 351°
2026-04-30 13:03 -33.93619 -58.57391 21053 ft 441 kts 351°
2026-04-30 13:03 -33.90536 -58.57528 21539 ft 444 kts 351°
2026-04-30 13:03 -33.87441 -58.57665 22013 ft 446 kts 351°
2026-04-30 13:03 -33.84331 -58.57802 22492 ft 448 kts 351°
2026-04-30 13:04 -33.81232 -58.57938 22947 ft 451 kts 351°
2026-04-30 13:04 -33.78082 -58.58076 23426 ft 453 kts 351°
2026-04-30 13:04 -33.74908 -58.58215 23833 ft 456 kts 351°
2026-04-30 13:04 -33.71731 -58.58355 24208 ft 458 kts 351°
2026-04-30 13:05 -33.68570 -58.58493 24591 ft 460 kts 351°
2026-04-30 13:05 -33.65359 -58.58633 24990 ft 462 kts 351°
2026-04-30 13:05 -33.62134 -58.58774 25387 ft 464 kts 351°
2026-04-30 13:06 -33.55685 -58.59055 26149 ft 468 kts 351°
2026-04-30 13:06 -33.52417 -58.59197 26535 ft 470 kts 351°
2026-04-30 13:06 -33.49135 -58.59340 26916 ft 472 kts 351°
2026-04-30 13:06 -33.45849 -58.59482 27306 ft 473 kts 351°
2026-04-30 13:07 -33.42555 -58.59625 27813 ft 472 kts 351°
2026-04-30 13:07 -33.39277 -58.59766 28382 ft 469 kts 350°
2026-04-30 13:07 -33.36014 -58.59906 28952 ft 467 kts 350°
2026-04-30 13:07 -33.32803 -58.60045 29516 ft 465 kts 350°
2026-04-30 13:08 -33.29570 -58.60184 30098 ft 463 kts 350°
2026-04-30 13:08 -33.26359 -58.60322 30595 ft 461 kts 350°
2026-04-30 13:08 -33.23158 -58.60460 31110 ft 458 kts 350°
2026-04-30 13:08 -33.19971 -58.60597 31650 ft 455 kts 350°
2026-04-30 13:09 -33.16814 -58.60733 32175 ft 451 kts 350°
2026-04-30 13:09 -33.13720 -58.60867 32704 ft 448 kts 350°
2026-04-30 13:09 -33.10607 -58.61001 33239 ft 445 kts 350°
2026-04-30 13:09 -33.07523 -58.61134 33781 ft 442 kts 349°
2026-04-30 13:10 -33.04447 -58.61267 34289 ft 439 kts 349°
2026-04-30 13:10 -33.01406 -58.61415 34734 ft 434 kts 348°
2026-04-30 13:10 -32.98436 -58.61675 35092 ft 432 kts 348°
2026-04-30 13:10 -32.95418 -58.61935 35442 ft 432 kts 348°
2026-04-30 13:11 -32.92426 -58.62188 35797 ft 430 kts 348°
2026-04-30 13:11 -32.89434 -58.62440 36144 ft 430 kts 348°
2026-04-30 13:11 -32.86456 -58.62688 36470 ft 429 kts 348°
2026-04-30 13:11 -32.83484 -58.62936 36799 ft 428 kts 348°
2026-04-30 13:12 -32.80518 -58.63183 37127 ft 426 kts 348°
2026-04-30 13:12 -32.77594 -58.63426 37427 ft 426 kts 348°
2026-04-30 13:12 -32.74634 -58.63671 37719 ft 425 kts 348°
2026-04-30 13:13 -32.68743 -58.64160 38302 ft 423 kts 348°
2026-04-30 13:13 -32.65797 -58.64404 38572 ft 422 kts 348°
2026-04-30 13:13 -32.59964 -58.64886 38994 ft 421 kts 348°
2026-04-30 13:14 -32.57035 -58.65128 39070 ft 423 kts 348°
2026-04-30 13:14 -32.48211 -58.65856 39076 ft 423 kts 348°
2026-04-30 13:15 -32.39442 -58.66579 39086 ft 423 kts 348°
2026-04-30 13:16 -32.33546 -58.66960 39074 ft 429 kts 356°
2026-04-30 13:16 -32.27558 -58.65839 39079 ft 436 kts
2026-04-30 13:17 -32.18553 -58.64008 39080 ft 437 kts
2026-04-30 13:18 -32.09587 -58.62149 39084 ft 437 kts
2026-04-30 13:18 -32.00581 -58.60285 39084 ft 437 kts
2026-04-30 13:19 -31.94588 -58.59047 39085 ft 437 kts
2026-04-30 13:19 -31.88608 -58.57812 39089 ft 437 kts
2026-04-30 13:20 -31.82592 -58.56572 39080 ft 437 kts
2026-04-30 13:20 -31.76590 -58.55337 39079 ft 437 kts
2026-04-30 13:21 -31.70621 -58.54110 39083 ft 437 kts
2026-04-30 13:22 -31.61605 -58.52259 39085 ft 438 kts
2026-04-30 13:22 -31.52625 -58.50420 39085 ft 438 kts
2026-04-30 13:23 -31.43609 -58.48576 39084 ft 438 kts
2026-04-30 13:24 -31.31615 -58.46130 39087 ft 438 kts
2026-04-30 13:25 -31.19627 -58.43691 39090 ft 438 kts
2026-04-30 13:26 -31.04585 -58.40640 39085 ft 438 kts
2026-04-30 13:28 -30.89579 -58.37591 39088 ft 439 kts
2026-04-30 13:28 -30.80547 -58.35601 39090 ft 439 kts
2026-04-30 13:29 -30.68541 -58.32977 39086 ft 439 kts
2026-04-30 13:31 -30.54513 -58.30079 39087 ft 438 kts
2026-04-30 13:32 -30.39492 -58.27175 39085 ft 438 kts 360°
2026-04-30 13:33 -30.27450 -58.24850 39089 ft 438 kts 360°
2026-04-30 13:34 -30.18413 -58.23110 39085 ft 438 kts 360°
2026-04-30 13:35 -30.06359 -58.20793 39095 ft 438 kts 359°
2026-04-30 13:36 -29.94351 -58.18492 39084 ft 438 kts 359°
2026-04-30 13:36 -29.85312 -58.16763 39083 ft 439 kts 359°
2026-04-30 13:37 -29.76265 -58.14911 39084 ft 440 kts 360°
2026-04-30 13:38 -29.67256 -58.13036 39087 ft 440 kts 360°
2026-04-30 13:39 -29.55220 -58.10539 39084 ft 440 kts 359°
2026-04-30 13:40 -29.46179 -58.08666 39085 ft 440 kts 359°
2026-04-30 13:40 -29.40148 -58.07252 39088 ft 445 kts
2026-04-30 13:41 -29.34150 -58.05649 39082 ft 444 kts
2026-04-30 13:41 -29.28117 -58.04063 39082 ft 444 kts
2026-04-30 13:42 -29.22068 -58.02477 39082 ft 445 kts
2026-04-30 13:42 -29.13049 -58.00115 39080 ft 445 kts
2026-04-30 13:43 -29.07004 -57.98535 39084 ft 445 kts
2026-04-30 13:43 -29.00964 -57.96958 39076 ft 445 kts
2026-04-30 13:44 -28.94949 -57.95389 39079 ft 445 kts
2026-04-30 13:44 -28.88897 -57.93812 39069 ft 445 kts
2026-04-30 13:45 -28.79877 -57.91465 39071 ft 445 kts
2026-04-30 13:46 -28.73826 -57.89894 39076 ft 445 kts
2026-04-30 13:46 -28.67782 -57.88326 39079 ft 445 kts
2026-04-30 13:47 -28.61738 -57.86760 39075 ft 445 kts
2026-04-30 13:47 -28.55719 -57.85202 39076 ft 445 kts
2026-04-30 13:48 -28.49665 -57.83637 39073 ft 445 kts
2026-04-30 13:48 -28.43611 -57.82073 39075 ft 445 kts
2026-04-30 13:49 -28.37601 -57.80523 39072 ft 445 kts
2026-04-30 13:49 -28.31538 -57.78961 39071 ft 445 kts
2026-04-30 13:50 -28.25487 -57.77371 39073 ft 446 kts
2026-04-30 13:50 -28.16431 -57.74992 39070 ft 446 kts
2026-04-30 13:51 -28.10379 -57.73404 39069 ft 446 kts
2026-04-30 13:51 -28.04327 -57.71819 39070 ft 446 kts
2026-04-30 13:52 -27.98308 -57.70244 39068 ft 446 kts
2026-04-30 13:52 -27.92222 -57.68653 39071 ft 446 kts
2026-04-30 13:53 -27.86210 -57.67084 39069 ft 446 kts
2026-04-30 13:53 -27.80160 -57.65506 39068 ft 446 kts
2026-04-30 13:54 -27.74111 -57.63930 39064 ft 445 kts
2026-04-30 13:54 -27.68065 -57.62357 39065 ft 445 kts
2026-04-30 13:55 -27.62018 -57.60786 39064 ft 445 kts
2026-04-30 13:55 -27.55959 -57.59213 39066 ft 445 kts
2026-04-30 13:56 -27.49954 -57.57656 39060 ft 445 kts
2026-04-30 13:56 -27.43901 -57.56099 39058 ft 443 kts 359°
2026-04-30 13:57 -27.40913 -57.55811 39074 ft 425 kts 349°
2026-04-30 13:57 -27.37934 -57.55716 39052 ft 428 kts 351°
2026-04-30 13:57 -27.31964 -57.55517 39062 ft 428 kts 350°
2026-04-30 13:58 -27.23054 -57.55255 38790 ft 427 kts 350°
2026-04-30 13:58 -27.20078 -57.55168 38549 ft 427 kts 350°
2026-04-30 13:59 -27.17099 -57.55081 38274 ft 427 kts 351°
2026-04-30 13:59 -27.14161 -57.54996 38015 ft 427 kts 351°
2026-04-30 13:59 -27.11147 -57.54909 37752 ft 428 kts 351°
2026-04-30 13:59 -27.08236 -57.54824 37171 ft 423 kts 351°
2026-04-30 14:00 -27.05260 -57.54739 36174 ft 431 kts 352°
2026-04-30 14:00 -26.99209 -57.54562 34801 ft 433 kts 352°
2026-04-30 14:00 -26.96188 -57.54475 34190 ft 432 kts 352°
2026-04-30 14:01 -26.93207 -57.54388 33395 ft 434 kts 353°
2026-04-30 14:01 -26.90172 -57.54300 32618 ft 436 kts 354°
2026-04-30 14:01 -26.87130 -57.54212 31891 ft 437 kts 354°
2026-04-30 14:01 -26.84089 -57.54277 30956 ft 439 kts 351°
2026-04-30 14:02 -26.81020 -57.54416 30116 ft 443 kts 352°
2026-04-30 14:02 -26.77926 -57.54539 29299 ft 444 kts 353°
2026-04-30 14:02 -26.74838 -57.54655 28446 ft 445 kts 353°
2026-04-30 14:02 -26.71735 -57.54770 27726 ft 443 kts 354°
2026-04-30 14:03 -26.68696 -57.54882 27016 ft 441 kts 354°
2026-04-30 14:03 -26.65629 -57.54994 26313 ft 439 kts 354°
2026-04-30 14:03 -26.62576 -57.55105 25624 ft 437 kts 355°
2026-04-30 14:03 -26.59535 -57.55215 24933 ft 435 kts 355°
2026-04-30 14:04 -26.56507 -57.55325 24252 ft 434 kts 356°
2026-04-30 14:04 -26.53495 -57.55435 23540 ft 433 kts 356°
2026-04-30 14:04 -26.50517 -57.55543 22711 ft 432 kts 356°
2026-04-30 14:04 -26.47528 -57.55651 22081 ft 427 kts 356°
2026-04-30 14:05 -26.44566 -57.55759 21433 ft 424 kts 357°
2026-04-30 14:05 -26.41624 -57.55865 20781 ft 421 kts 357°
2026-04-30 14:05 -26.38678 -57.55972 20099 ft 423 kts 357°
2026-04-30 14:05 -26.35738 -57.56078 19446 ft 422 kts 357°
2026-04-30 14:06 -26.32813 -57.56184 18794 ft 419 kts 358°
2026-04-30 14:06 -26.26996 -57.56394 17395 ft 415 kts 358°
2026-04-30 14:07 -26.21281 -57.56600 16085 ft 406 kts 358°
2026-04-30 14:07 -26.18502 -57.56701 15461 ft 402 kts 358°
2026-04-30 14:07 -26.15712 -57.56801 14830 ft 399 kts 358°
2026-04-30 14:08 -26.11125 -57.56966 13784 ft 394 kts 358°
2026-04-30 14:08 -26.08396 -57.57064 13103 ft 391 kts 358°
2026-04-30 14:08 -26.03003 -57.57258 11874 ft 382 kts 359°
2026-04-30 14:09 -26.00390 -57.57352 11601 ft 369 kts 359°
2026-04-30 14:09 -25.97863 -57.57443 11360 ft 356 kts 359°
2026-04-30 14:09 -25.93100 -57.57614 10949 ft 332 kts 359°
2026-04-30 14:10 -25.90828 -57.57696 10744 ft 320 kts 359°
2026-04-30 14:10 -25.88634 -57.57774 10562 ft 309 kts 359°
2026-04-30 14:10 -25.86516 -57.57850 10379 ft 299 kts 359°
2026-04-30 14:10 -25.84464 -57.57924 10210 ft 289 kts 359°
2026-04-30 14:11 -25.82469 -57.57995 9837 ft 286 kts 359°
2026-04-30 14:11 -25.80509 -57.58066 9413 ft 285 kts 359°
2026-04-30 14:11 -25.78532 -57.58137 9044 ft 282 kts 358°
2026-04-30 14:11 -25.76574 -57.58207 8676 ft 279 kts 358°
2026-04-30 14:12 -25.74637 -57.58277 8322 ft 276 kts 358°
2026-04-30 14:12 -25.72723 -57.58345 7974 ft 274 kts 358°
2026-04-30 14:12 -25.70821 -57.58413 7633 ft 272 kts 357°
2026-04-30 14:12 -25.68937 -57.58480 7288 ft 270 kts 357°
2026-04-30 14:13 -25.67066 -57.58547 6942 ft 268 kts 357°
2026-04-30 14:13 -25.65230 -57.58613 6606 ft 266 kts 356°
2026-04-30 14:13 -25.63380 -57.58678 6251 ft 265 kts 356°
2026-04-30 14:13 -25.61540 -57.58743 5902 ft 263 kts 357°
2026-04-30 14:14 -25.59707 -57.58808 5548 ft 262 kts 358°
2026-04-30 14:14 -25.57887 -57.58873 5205 ft 260 kts 358°
2026-04-30 14:14 -25.56073 -57.58938 4876 ft 260 kts 358°
2026-04-30 14:14 -25.54273 -57.59002 4578 ft 262 kts 359°
2026-04-30 14:15 -25.52488 -57.58889 4416 ft 253 kts 12°
2026-04-30 14:15 -25.50781 -57.58462 4261 ft 243 kts 13°
2026-04-30 14:15 -25.49166 -57.58059 4158 ft 232 kts 13°
2026-04-30 14:15 -25.47627 -57.57679 4017 ft 222 kts 13°
2026-04-30 14:16 -25.46153 -57.57317 3888 ft 210 kts 13°
2026-04-30 14:16 -25.44775 -57.56979 3743 ft 197 kts 13°
2026-04-30 14:16 -25.43482 -57.56663 3606 ft 184 kts 14°
2026-04-30 14:16 -25.42281 -57.56370 3467 ft 174 kts 14°
2026-04-30 14:17 -25.41090 -57.56079 3307 ft 174 kts 13°
2026-04-30 14:17 -25.39905 -57.55790 3049 ft 174 kts 13°
2026-04-30 14:17 -25.38727 -57.55502 2804 ft 171 kts 13°
2026-04-30 14:17 -25.37595 -57.55226 2643 ft 166 kts 14°
2026-04-30 14:18 -25.36452 -57.54948 2511 ft 170 kts 13°
2026-04-30 14:18 -25.35303 -57.54668 2376 ft 169 kts 13°
2026-04-30 14:18 -25.33116 -57.54136 1913 ft 150 kts 14°
2026-04-30 14:19 -25.31152 -57.53656 1438 ft 144 kts 13°
2026-04-30 14:19 -25.30172 -57.53430 1254 ft 146 kts 13°
2026-04-30 14:19 -25.29171 -57.53180 1059 ft 149 kts 13°
2026-04-30 14:20 -25.28162 -57.52939 862 ft 149 kts 16°
2026-04-30 14:20 -25.27145 -57.52684 651 ft 152 kts 16°
2026-04-30 14:20 -25.25097 -57.52180 290 ft 144 kts 13°
2026-04-30 14:21 -25.24231 -57.51970 285 ft 108 kts 12°
2026-04-30 14:21 -25.23627 -57.51823 277 ft 79 kts 12°
2026-04-30 14:21 -25.23063 -57.51614 275 ft 23 kts 88°
2026-04-30 14:22 -25.23125 -57.51488 280 ft 17 kts 175°
2026-04-30 14:22 -25.23488 -57.51572 280 ft 37 kts 191°
2026-04-30 14:22 -25.23755 -57.51637 281 ft 40 kts 192°
2026-04-30 14:23 -25.24076 -57.51525 283 ft 9 kts 117°
2026-04-30 14:23 -25.24080 -57.51517 281 ft 0 kts 117°